Location: Albany
(35.0000°S, 118.0000°E)
Time: 23:20:36
(UTC-04:00)

Vanguard 3 - Visible Passes

Search period start: 17 April 2015 00:00
Search period end: 27 April 2015 00:00
Orbit: 510 x 3271 km, 33.3° (Epoch: 16 April)

Date Brightness Start Highest point End Pass type
(mag) Time Alt. Az. Time Alt. Az. Time Alt. Az.
17 Apr 10.9 14:41:37 17° N 14:48:28 22° NNE 14:58:50 10° ENE visible
17 Apr 9.9 16:48:02 10° NW 17:03:50 48° NNE 17:13:35 10° E visible
18 Apr 11.3 13:33:54 14° NE 13:33:54 14° NE 13:41:28 10° ENE visible
18 Apr 10.3 15:38:38 20° NNW 15:49:21 38° NNE 16:00:31 10° E visible
18 Apr 9.3 17:48:32 10° WNW 18:04:14 66° NNE 18:13:05 10° E visible
19 Apr 10.7 14:30:46 26° NNE 14:34:28 28° NNE 14:46:23 10° E visible
19 Apr 9.8 16:35:30 16° NW 16:50:00 55° NNE 17:00:37 10° E visible
20 Apr 11.1 13:22:45 18° NE 13:22:45 18° NE 13:30:10 10° ENE visible
20 Apr 10.2 15:27:29 31° NNW 15:35:18 44° NNE 15:47:32 10° E visible
20 Apr 9.4 17:33:43 10° WNW 17:50:30 72° NNE 18:00:05 10° E visible
21 Apr 10.6 14:19:20 33° NNE 14:20:16 33° NNE 14:33:32 10° E visible
21 Apr 9.7 16:24:02 25° NW 16:36:02 62° NNE 16:47:30 10° E visible
22 Apr 11.1 13:11:05 20° ENE 13:11:05 20° ENE 13:17:51 10° E visible
22 Apr 10.1 15:15:47 42° N 15:21:06 50° NNE 15:34:22 10° E visible
22 Apr 9.4 17:20:29 13° WNW 17:36:40 77° NNE 17:47:00 10° E visible
23 Apr 10.5 14:07:25 38° NE 14:07:25 38° NE 14:20:21 10° E visible
23 Apr 9.7 16:12:07 34° NW 16:21:55 67° NNE 16:34:16 10° E visible
24 Apr 11.1 12:58:57 21° ENE 12:58:57 21° ENE 13:04:57 10° E visible
24 Apr 10.0 15:03:38 52° N 15:06:44 56° NNE 15:21:00 10° E visible
24 Apr 9.5 17:08:19 20° WNW 17:22:42 80° N 17:33:48 10° E visible
25 Apr 10.4 13:55:05 41° NE 13:55:05 41° NE 14:06:56 10° E visible
25 Apr 9.7 15:59:46 43° NW 16:07:40 73° NNE 16:20:56 10° E visible
25 Apr 9.3 18:06:03 10° W 18:23:21 84° N 18:33:08 10° E visible
26 Apr 11.1 12:46:28 21° E 12:46:28 21° E 12:51:38 10° E visible
26 Apr 9.9 14:51:08 61° N 14:52:14 62° NNE 15:07:29 10° E visible
26 Apr 9.5 16:55:48 26° WNW 17:08:37 83° N 17:20:32 10° E visible
